Ishigakijima, Japan

11:48 AM JST on August 20, 2017 (GMT +0900)
Ishigaki

Weather History for ROIG - January, 2013

Change the Weather History Date:

Thursday, January 17, 2013

  Actual Average Record
Temperature  
Mean Temperature 61 °F -  
Max Temperature 64 °F 70 °F 77 °F (1998)
Min Temperature 57 °F 61 °F 53 °F (2011)
Degree Days  
Heating Degree Days 4    
Growing Degree Days 11 (Base 50)    
Moisture  
Dew Point 52 °F    
Average Humidity 71    
Maximum Humidity 88    
Minimum Humidity 52    
Precipitation  
Precipitation 0.00 in 0.15 in - ()
Sea Level Pressure  
Sea Level Pressure 30.23 in    
Wind  
Wind Speed 14 mph ()    
Max Wind Speed 25 mph    
Max Gust Speed 36 mph    
Visibility 5.7 miles    
Events Rain    
Averages and records for this station are not official NWS values.
T = Trace of Precipitation, MM = Missing Value Source: Averaged Metar Reports

Daily Weather History Graph

Daily Weather History Graph

Search for Another Location

Airport or City:

Trip Planner

Search our weather history database for the weather conditions in past years. The results will help you decide how hot, cold, wet, or windy it might be!

Date:

Astronomy

Jan. 17, 2013 Rise Set
Actual Time 7:28 AM JST 6:18 PM JST
Civil Twilight 7:04 AM JST 6:42 PM JST
Nautical Twilight 6:36 AM JST 7:10 PM JST
Astronomical Twilight 6:09 AM JST 7:37 PM JST
Moon 11:00 AM JST (1/17) 11:47 PM JST (1/17)
Length of Visible Light 11h 37m
Length of Day
10h 49m
Waxing Crescent, 32% of the Moon is Illuminated
Jan 17
Waxing Crescent
Jan 19
First Quarter
Jan 27
Full
Feb 3
Last Quarter
Feb 10
New

Hourly Weather History & Observations

Time (JST) Temp. Dew Point Humidity Pressure Visibility Wind Dir Wind Speed Gust Speed Precip Events Conditions
12:00 AM 65 °F 55 °F 62% 30.17 in - NE 8.1 mph - -  
3:00 AM 64 °F 58 °F 73% 30.17 in 6 mi NNE 12.7 mph - - Rain Light Rain
6:00 AM 62 °F 56 °F 77% 30.19 in 6 mi NNE 16.1 mph - - Rain Light Rain
6:00 AM 60.8 °F 57.2 °F 88% 30.15 in 6.2 mi NNE 13.8 mph - N/A   Mostly Cloudy
7:00 AM 60.8 °F 55.4 °F 82% 30.18 in 6.2 mi North 11.5 mph - N/A   Mostly Cloudy
8:00 AM 62.6 °F 55.4 °F 77% 30.18 in 6.2 mi North 11.5 mph - N/A   Mostly Cloudy
9:00 AM 63 °F 56 °F 70% 30.25 in 6 mi NNE 15.0 mph - - Rain Light Rain
9:00 AM 62.6 °F 55.4 °F 77% 30.21 in 6.2 mi NNE 15.0 mph - N/A   Mostly Cloudy
10:00 AM 62.6 °F 53.6 °F 72% 30.24 in 6.2 mi North 18.4 mph - N/A   Mostly Cloudy
11:00 AM 62.6 °F 51.8 °F 68% 30.24 in 5.0 mi NNE 20.7 mph - N/A   Mostly Cloudy
12:00 PM 63 °F 51 °F 55% 30.25 in 6 mi NNE 20.7 mph - -   Partly Cloudy
12:00 PM 62.6 °F 50.0 °F 63% 30.21 in 5.0 mi North 18.4 mph - N/A   Mostly Cloudy
1:00 PM 62.6 °F 51.8 °F 68% 30.21 in 5.0 mi NNE 16.1 mph - N/A   Mostly Cloudy
2:00 PM 60.8 °F 51.8 °F 72% 30.18 in 5.0 mi North 16.1 mph - N/A   Mostly Cloudy
3:00 PM 59 °F 52 °F 70% 30.22 in 4 mi North 16.1 mph - - Rain Light Rain Showers
3:00 PM 57.2 °F 51.8 °F 82% 30.21 in 5.0 mi North 18.4 mph - N/A   Mostly Cloudy
4:00 PM 60.8 °F 51.8 °F 72% 30.21 in 6.2 mi North 19.6 mph 31.1 mph N/A   Mostly Cloudy
5:00 PM 59.0 °F 50.0 °F 72% 30.24 in 6.2 mi North 20.7 mph - N/A   Mostly Cloudy
6:00 PM 59 °F 50 °F 63% 30.29 in 5 mi NNE 19.6 mph - - Rain Light Rain
6:00 PM 59.0 °F 50.0 °F 72% 30.27 in 5.0 mi North 18.4 mph 29.9 mph N/A Rain Light Rain
7:00 PM 57.2 °F 48.2 °F 72% 30.27 in 6.2 mi North 23.0 mph 35.7 mph N/A Rain Light Rain
8:00 PM 59.0 °F 48.2 °F 67% 30.30 in 6.2 mi NNE 25.3 mph - N/A   Mostly Cloudy
9:00 PM 59 °F 46 °F 52% 30.34 in 6 mi North 21.9 mph - - Rain Light Rain